User: anonymous   Login
Location: Churchill
(58.7670°N, 94.1670°W)
Time: 09:20:28
(UTC-06:00)
Language:

Cosmos 2142 Rocket - Orbit

View from above orbital plane
View from above orbital plane
View from above satellite
View from above satellite

Ground track
Ground track

The orbit data is extracted from the following two-line orbital elements,

1 21231U 91029B   16342.83505964 +.00000028 +00000-0 +13024-4 0  9990
2 21231 082.9535 250.3989 0036258 045.9744 016.1288 13.75731580287212
Epoch (UTC): 07 December 2016 20:02:29
Eccentricity: 0.0036258
inclination: 82.9535°
perigee height: 952 km
apogee height: 1006 km
right ascension of ascending node: 250.3989°
argument of perigee: 45.9744°
revolutions per day: 13.75731580
mean anomaly at epoch: 16.1288°
orbit number at epoch: 28721

The dashed part of the orbit path shows where the satellite is in the earth's shadow,  

DLR